Location: Laas
(43.4693°N, 0.3073°E)
Time: 14:58:27
(UTC+00:00)

Cosmos 2058 - Pass Details

Date: 25 October 2020
Orbit: 562 x 584 km, 82.5° (Epoch: 24 November)

Event Time Altitude Azimuth Distance (km) Brightness Sun altitude
Rises 18:55:21 0° 352° (N) 2,764 6.5 -21.7°
Reaches altitude 10° 18:57:32 10° 352° (N) 1,863 5.6 -22.1°
Maximum altitude 19:01:38 86° 81° (E) 570 2.7 -22.8°
Enters shadow 19:01:40 86° 97° (E) 570 2.7 -22.8°
